Wind_Speed
4 4 3 1 3 3 3 4 5 4 5 7 7 6 6 7 7 5 5 6 6 7 6 6 5 3 3 3 4 3 2 1 2 3 3 1 1 2 2 2 2 3 5 9 11 15 18 20 24 28 30 33 36 37 37 37 37 38 38 37 37 38 39 38 35 32 30 28 26 26 27 29 30 29 28 28 28 28 27 27 27 27 26 24 22 21 20
1 2 4 3 5 3 1 4 5 5 6 9 8 5 4 5 4 3 4 6 8 8 6 4 0 4 6 6 4 2 1 1 2 3 4 2 1 1 1 2 2 2 3 6 9 12 15 17 20 24 29 32 34 36 36 36 37 38 38 38 37 37 38 38 37 35 33 32 30 28 27 27 29 30 29 28 27 28 28 27 27 27 27 25 23 21 20
3 2 1 3 4 3 3 3 3 1 4 5 4 2 3 3 2 2 4 3 6 7 5 4 5 8 9 8 6 3 1 1 2 4 5 4 4 4 3 3 4 4 4 5 7 9 11 14 16 18 23 27 31 32 32 33 36 38 39 38 38 37 37 36 36 36 36 35 33 31 28 27 28 29 29 28 27 28 27 26 26 26 26 26 24 21 20
2 2 4 4 4 4 2 5 4 3 4 4 4 3 5 5 4 4 3 1 5 5 2 4 7 8 8 7 4 3 1 1 2 4 6 6 6 6 6 5 6 6 6 5 7 8 10 12 13 14 16 20 25 30 30 30 31 35 39 39 38 38 38 36 35 35 36 36 36 34 31 28 27 27 28 28 28 27 26 24 23 23 24 25 23 21 20
3 3 3 4 4 5 3 5 4 5 4 3 3 2 4 6 6 5 4 5 5 4 1 3 5 5 6 5 3 3 2 2 3 4 5 6 6 7 8 9 9 9 9 8 8 9 10 11 13 14 15 17 20 24 28 29 28 30 35 39 39 39 38 37 36 34 35 36 37 35 32 30 28 26 27 28 27 27 26 23 20 20 21 22 22 21 21
3 4 3 3 2 0 5 5 4 6 5 5 5 3 4 5 4 3 4 3 3 2 1 4 3 3 5 5 4 3 2 3 3 3 3 4 6 8 10 12 13 13 12 11 11 11 11 11 12 13 15 18 19 20 22 25 27 28 31 35 39 39 38 37 37 35 35 36 37 35 33 30 28 26 27 27 26 26 24 21 21 21 21 22 22 23 22
3 2 4 3 3 6 6 5 4 5 5 5 5 2 2 4 3 2 1 1 3 2 4 4 4 5 5 4 3 2 2 1 2 2 3 5 7 9 11 13 14 14 13 13 13 13 13 13 12 13 14 17 20 21 21 21 24 26 28 31 36 39 38 37 37 37 36 35 35 35 34 32 28 26 26 25 24 25 24 23 22 22 23 24 25 24 22
3 2 3 3 5 7 5 6 4 2 3 4 4 3 3 5 5 4 3 4 4 4 5 4 5 5 4 4 2 0 1 1 2 3 4 5 8 10 12 13 15 14 14 14 13 13 14 14 14 13 14 16 19 22 23 23 23 25 26 28 32 35 37 37 37 37 36 35 35 36 37 34 30 27 27 25 24 25 26 25 24 24 25 26 26 24 23
2 3 2 2 3 4 4 4 3 3 3 4 5 2 4 6 6 6 5 4 4 4 4 4 5 4 3 4 2 2 4 4 4 4 5 6 9 10 12 14 16 16 16 16 15 14 15 14 14 14 15 17 19 22 24 25 26 26 27 28 30 31 34 36 36 36 36 36 36 37 37 35 31 29 29 28 27 27 27 27 26 27 28 27 26 25 25
2 4 1 1 1 3 5 7 6 2 2 4 6 4 3 6 7 10 7 5 6 6 6 5 4 4 3 3 2 2 5 5 5 5 6 7 8 10 13 15 15 14 14 16 16 16 16 15 15 16 17 18 21 22 24 25 27 29 30 30 30 31 32 33 34 34 34 35 36 36 36 34 32 30 30 31 31 31 30 30 30 30 28 28 29 27 26
2 4 3 3 4 5 7 9 6 2 3 5 5 4 4 6 9 13 8 6 9 9 8 7 5 5 1 3 4 4 5 6 6 6 7 7 8 11 13 14 13 11 12 14 15 15 16 16 16 17 19 20 22 24 24 24 27 30 32 33 32 32 32 32 33 33 34 34 35 35 34 33 32 32 32 33 33 34 33 33 32 31 28 27 28 25 23
3 4 3 3 4 3 5 6 4 3 6 6 6 2 6 6 11 13 10 9 10 10 10 9 6 4 4 4 3 3 4 5 5 7 7 8 10 11 12 13 12 12 13 14 15 16 16 17 17 17 19 22 24 26 26 27 30 32 33 34 34 33 33 34 34 34 34 35 35 36 33 30 30 32 34 35 33 31 32 32 30 27 25 25 24 22 20
3 4 3 2 3 4 5 4 6 10 8 5 3 4 7 8 14 14 12 11 10 10 11 10 6 5 6 4 2 3 3 3 6 7 8 10 12 12 11 12 12 12 13 14 15 15 15 16 16 17 19 21 23 23 24 28 32 34 35 36 35 33 33 34 34 34 35 37 37 37 35 31 30 31 34 36 33 29 28 28 27 25 24 23 23 22 20
3 3 3 1 3 6 6 6 9 11 7 1 5 6 6 14 19 16 13 12 10 10 11 10 6 5 5 4 3 3 2 4 6 7 9 11 12 11 11 11 12 12 13 13 14 14 14 15 15 16 18 20 21 19 18 21 23 26 32 36 35 33 32 32 33 34 35 38 39 38 37 34 32 33 33 33 31 28 26 24 23 23 23 22 22 20 17
3 2 3 3 2 6 13 13 7 5 5 4 7 8 9 15 19 16 14 13 11 10 10 8 8 7 5 4 4 3 4 6 6 7 8 10 11 11 11 11 11 12 12 12 13 14 15 16 17 16 17 19 21 19 17 17 18 17 21 27 30 30 30 31 33 33 34 36 37 38 37 34 32 34 35 34 31 29 27 24 22 21 21 20 19 17 15
4 2 3 4 3 8 20 15 4 7 8 5 9 13 12 15 17 15 15 13 10 10 9 8 9 9 7 6 6 5 6 6 6 6 8 9 10 10 10 10 10 11 12 13 14 16 17 18 17 16 16 18 20 20 18 17 15 11 10 17 22 25 26 28 31 32 32 33 35 37 36 34 33 35 36 34 32 29 27 24 21 19 19 17 15 14 13
4 4 6 6 4 7 21 14 3 8 12 7 8 11 10 12 15 13 13 12 11 10 9 8 8 9 8 7 7 6 6 5 5 6 8 9 9 9 9 8 9 10 12 13 14 16 18 18 16 15 15 16 17 19 19 17 14 10 5 10 16 19 22 25 29 32 33 33 35 36 34 33 34 36 35 33 31 28 25 21 18 18 17 15 13 13 12
3 3 3 3 3 5 18 14 4 8 13 10 10 9 7 8 9 9 9 10 10 10 10 9 8 7 8 7 7 6 5 4 4 6 7 8 7 8 7 6 8 10 11 12 13 14 16 17 16 14 13 13 14 15 15 14 12 10 8 9 14 17 20 23 27 31 33 32 31 31 31 32 33 33 33 32 29 26 22 19 18 19 18 17 16 15 14
2 2 4 4 3 3 12 13 9 10 14 13 11 8 5 4 5 6 7 8 9 8 7 7 6 6 7 8 7 6 4 3 4 5 6 7 6 6 5 6 8 9 9 11 11 12 14 15 14 12 10 10 10 10 11 10 10 11 10 13 17 19 22 24 27 30 32 32 31 31 32 34 35 33 30 28 25 24 23 22 22 22 21 19 17 16 15
2 4 6 5 2 2 7 11 12 13 15 14 10 8 6 5 6 8 9 8 7 7 6 6 6 6 7 8 7 5 4 4 4 4 6 7 5 5 5 6 7 8 8 9 9 9 11 12 11 10 7 6 5 6 6 5 6 9 10 13 17 20 23 27 28 26 25 29 34 34 33 34 33 30 28 26 25 25 24 24 23 22 21 20 18 18 18
1 4 5 2 1 2 5 10 13 14 15 13 11 9 8 7 8 9 9 8 6 6 6 5 6 6 7 7 6 5 4 4 3 4 6 5 4 3 4 5 6 7 7 7 6 7 8 8 9 9 7 5 4 4 4 3 2 4 9 15 18 21 23 24 26 27 29 33 37 37 35 34 33 31 29 28 28 28 26 23 21 21 21 21 20 19 19
2 4 5 7 4 2 9 14 14 14 14 12 11 11 8 8 9 9 9 8 7 6 6 5 5 5 6 7 6 6 5 3 2 4 5 3 2 2 3 4 4 5 5 5 4 6 7 7 9 10 9 8 8 8 7 6 5 6 12 19 23 25 25 26 28 30 32 34 36 38 38 38 37 36 33 29 28 29 28 26 24 22 22 21 19 17 16
5 5 8 13 9 5 12 19 16 15 15 13 11 10 7 7 9 8 7 7 6 6 5 5 5 5 5 6 7 7 6 4 2 2 2 1 1 3 3 3 3 5 6 6 7 8 9 10 11 11 10 11 11 11 11 12 12 13 17 22 26 28 29 29 31 33 35 35 36 37 38 38 39 38 37 33 30 28 27 26 24 22 21 20 18 16 15
6 8 8 13 13 7 10 17 18 15 15 13 10 9 7 7 7 7 6 6 6 6 6 5 5 5 5 5 7 8 7 4 3 1 2 3 5 5 5 4 5 6 6 7 8 10 12 13 13 12 13 14 14 14 14 16 17 18 21 25 29 30 31 31 32 33 34 34 34 34 34 33 33 33 33 32 30 27 25 24 23 22 21 19 18 16 15
9 12 13 12 16 11 8 14 18 16 14 13 10 9 9 8 8 7 7 6 6 6 5 5 6 6 5 6 8 9 8 6 4 3 4 6 7 6 5 6 6 7 7 7 8 10 13 15 15 15 16 17 18 18 18 20 21 22 23 26 29 30 31 31 32 32 33 33 32 32 31 31 31 30 29 30 31 30 27 24 23 23 22 20 18 17 16
12 13 13 12 15 12 9 13 18 17 15 14 12 10 9 8 7 7 7 6 5 5 4 4 5 5 6 7 9 10 9 8 7 7 6 8 8 7 7 8 9 7 6 6 6 8 11 15 16 17 17 17 18 20 20 20 22 23 23 23 25 26 26 27 27 28 29 29 28 28 28 28 29 29 30 30 31 32 31 29 27 25 23 21 19 17 15
14 11 10 10 11 13 14 15 17 17 17 15 13 11 9 8 7 7 6 5 4 5 5 4 5 7 9 9 11 11 11 10 9 8 9 9 9 8 9 9 8 8 7 6 6 7 9 13 16 18 19 18 18 19 18 17 18 20 19 19 19 20 21 22 23 24 24 24 25 25 26 27 28 29 30 31 31 31 31 30 29 27 25 23 20 17 16
15 11 12 13 13 17 20 17 15 16 16 15 14 11 9 8 7 6 6 5 5 7 8 7 6 8 10 12 13 13 13 13 12 11 12 11 10 10 10 9 9 10 10 10 10 11 12 15 19 20 20 18 18 18 17 15 16 17 17 17 18 19 19 20 21 22 23 23 24 25 27 28 29 29 30 30 29 29 28 26 26 26 24 22 20 18 16
15 11 14 17 15 17 19 18 16 15 14 14 14 11 9 9 7 6 6 5 6 8 10 9 8 9 11 13 13 13 14 15 15 14 14 12 11 11 11 10 11 13 13 13 15 17 18 20 21 21 20 19 19 20 19 17 18 19 18 17 17 18 20 21 22 23 23 24 25 26 27 28 28 28 27 27 26 25 24 23 23 23 22 20 18 16 14
14 10 14 17 13 11 14 18 18 16 13 12 12 11 10 8 7 6 6 6 7 9 10 10 10 11 12 13 13 13 14 15 15 15 15 12 11 12 12 11 12 14 15 15 16 17 19 20 20 21 20 20 20 20 20 20 20 20 20 20 20 20 21 21 22 22 23 24 25 25 25 25 24 24 23 23 22 21 21 20 20 19 19 17 14 12 12
14 12 15 18 13 10 12 16 17 15 12 11 11 11 11 9 7 7 7 7 8 10 11 11 12 13 13 14 15 15 16 15 15 17 15 11 11 14 14 13 14 15 15 15 15 16 16 17 18 19 18 18 18 19 19 19 19 19 19 19 20 20 21 21 21 22 22 22 22 22 21 21 20 19 19 19 19 18 18 18 18 17 16 14 12 12 13
13 12 13 15 13 10 11 14 15 14 12 11 12 11 10 8 5 5 6 7 9 11 12 13 14 14 14 16 17 17 18 16 16 17 15 11 11 13 13 13 15 15 15 15 16 15 16 16 17 17 16 14 15 16 17 17 16 14 14 15 16 17 17 17 17 18 19 19 18 18 17 18 17 17 17 17 16 16 16 16 16 15 13 11 11 13 13
12 11 12 14 14 12 12 14 14 13 13 12 11 10 9 7 5 5 6 7 10 12 13 14 14 15 16 17 18 18 18 17 17 17 15 13 12 13 12 13 15 16 15 15 14 12 12 14 16 16 14 12 12 14 16 17 16 13 11 11 12 12 13 13 13 14 14 15 14 14 14 15 15 15 15 15 15 15 15 15 15 13 11 10 10 11 10
14 13 14 15 17 16 15 14 14 14 14 13 12 11 10 9 7 6 7 8 11 14 14 14 15 16 17 17 18 19 19 19 20 20 18 15 15 15 14 16 18 17 15 13 12 10 11 12 14 14 12 11 12 13 13 14 15 13 11 11 11 12 12 11 11 11 11 11 11 11 11 12 13 14 14 14 14 14 14 13 12 10 8 8 9 8 8
18 17 16 16 17 19 19 17 16 16 15 15 14 12 11 10 9 8 8 8 11 13 14 14 15 16 16 17 18 20 21 21 21 21 19 18 18 19 18 19 19 18 15 14 13 12 11 11 11 11 10 10 10 12 12 12 13 13 11 10 11 12 12 11 10 10 10 10 10 9 9 10 12 13 13 13 13 12 11 10 9 7 6 7 7 6 6
19 18 16 16 17 19 20 21 19 17 16 15 14 12 12 11 10 9 8 9 11 13 14 15 16 16 15 16 18 21 23 24 22 20 19 19 19 19 20 19 19 18 16 15 14 13 12 12 12 11 10 10 11 12 13 12 12 12 11 9 9 10 10 10 9 9 9 9 9 9 9 9 10 12 12 12 12 11 9 8 8 7 6 6 6 5 6
18 17 16 16 16 17 19 20 20 18 16 15 13 12 11 11 11 10 10 11 12 13 14 15 15 14 14 16 18 19 21 22 20 19 20 20 19 19 19 19 18 16 14 14 14 14 14 14 13 12 11 10 11 13 14 13 12 12 11 9 8 8 8 7 7 8 9 9 9 10 10 10 11 12 12 11 10 9 8 7 7 6 5 5 5 5 5
15 14 14 14 14 15 16 18 19 18 16 14 13 12 12 11 12 12 12 12 13 13 14 15 15 14 15 17 18 18 18 19 19 20 21 20 20 20 21 20 18 16 14 13 14 14 14 12 11 11 10 10 12 14 15 13 12 12 11 9 8 7 6 5 7 9 10 10 10 11 11 12 12 13 12 11 10 9 8 7 6 6 6 5 6 6 6
14 13 12 13 13 14 16 17 17 16 15 15 14 13 13 12 12 13 14 13 13 13 14 15 15 15 16 17 18 18 18 19 20 22 23 22 20 20 19 17 15 14 13 12 12 12 12 11 10 10 10 11 12 15 16 13 10 9 9 8 7 6 6 7 10 12 12 12 13 13 13 12 12 13 13 12 10 9 8 7 7 7 7 7 6 6 6
13 13 13 14 15 15 16 16 15 15 15 15 14 14 14 14 15 15 15 15 14 14 14 15 15 16 16 17 17 18 19 18 19 20 22 21 19 17 16 15 14 14 12 11 10 10 10 10 9 10 12 12 12 14 14 12 8 7 7 6 6 7 9 11 13 14 14 14 14 14 13 13 13 12 11 10 9 8 7 7 7 6 6 6 5 5 5
12 13 13 14 16 17 17 16 15 15 16 17 15 14 14 14 16 17 17 16 15 15 15 14 13 13 15 15 16 17 18 18 17 17 19 19 18 18 17 17 16 14 12 11 10 10 10 10 10 11 12 12 12 12 12 9 6 5 6 7 7 8 10 11 11 12 12 12 11 11 10 10 10 9 9 8 7 7 6 5 5 4 4 4 4 5 5
9 12 14 15 16 17 18 17 16 16 17 18 17 16 14 14 15 16 16 16 16 16 15 14 12 12 14 16 16 16 17 18 17 17 18 18 18 17 17 15 14 13 12 11 10 11 10 11 12 12 12 12 13 12 10 8 6 4 5 7 9 9 10 10 10 10 10 9 8 7 6 7 7 8 8 7 6 5 4 4 3 2 2 3 4 5 6
5 9 13 15 17 18 19 19 18 18 20 21 19 17 15 15 16 16 16 16 16 16 17 17 15 15 17 17 17 19 20 20 18 18 17 16 14 12 10 9 10 11 10 10 11 10 10 11 12 13 13 13 13 12 10 9 7 5 5 7 9 10 10 11 11 10 9 8 6 6 6 7 7 7 6 6 6 5 4 2 2 2 3 4 6 6 6
5 5 8 13 17 19 19 17 16 18 21 22 21 18 16 16 17 17 17 17 17 18 19 19 18 18 18 17 19 22 24 23 20 18 17 16 14 10 8 7 8 9 9 10 10 10 9 10 12 13 13 13 13 12 12 11 9 6 4 5 7 8 9 10 10 9 8 6 5 5 6 6 6 5 5 5 5 4 3 2 2 3 4 5 6 6 6
5 3 4 8 13 16 15 13 13 15 18 20 20 18 16 16 18 18 18 17 18 19 20 19 19 19 18 18 20 22 23 21 19 16 12 10 10 9 10 10 11 10 9 10 11 10 10 11 12 13 14 15 14 13 13 12 9 6 5 5 5 6 7 8 8 7 7 6 6 5 5 6 7 6 6 4 3 2 2 2 3 3 4 5 5 5 5
5 3 2 5 8 9 9 11 14 16 18 19 20 19 17 17 19 20 19 18 19 19 19 19 18 18 18 19 21 21 20 18 16 12 7 5 5 8 10 11 11 10 9 9 11 12 12 12 13 14 15 15 14 12 12 12 9 7 6 6 5 4 5 6 6 6 7 7 6 6 7 8 8 7 6 4 3 3 2 2 3 3 4 5 5 4 4
5 5 4 5 6 6 7 11 15 19 20 21 22 22 20 19 20 21 20 19 18 18 19 18 18 17 19 21 22 20 17 15 14 13 10 8 8 9 11 11 11 10 10 9 10 12 13 13 14 15 15 15 14 13 12 11 10 9 8 7 5 5 6 6 6 7 7 7 7 7 8 9 8 8 7 5 4 3 2 2 3 3 4 4 4 4 4
6 6 6 6 7 7 9 12 17 21 21 21 22 23 22 20 21 22 22 20 19 20 20 20 19 20 22 24 22 17 12 8 9 11 12 12 11 11 12 12 10 9 9 9 10 11 12 13 14 15 16 16 15 13 12 11 10 9 8 6 5 5 6 6 7 7 7 7 8 8 9 9 9 8 7 5 4 3 2 2 3 3 3 3 4 4 3
8 8 9 9 10 10 11 14 17 20 19 20 22 24 23 21 22 24 24 23 22 23 23 23 22 23 25 25 22 17 11 6 5 6 9 11 12 12 12 12 11 9 8 9 10 11 11 12 13 15 17 16 15 13 12 10 9 8 7 5 5 5 5 6 6 7 7 8 8 9 9 10 10 9 8 6 5 5 4 3 3 2 2 3 4 4 3
9 10 12 13 13 14 14 15 15 16 17 20 23 26 25 22 23 25 26 25 25 25 25 25 25 25 25 24 21 16 12 9 7 6 7 10 11 11 11 12 12 10 10 11 12 13 12 11 11 13 15 16 15 13 11 10 9 7 6 6 6 6 6 7 7 8 8 8 9 10 10 10 9 9 8 7 6 5 5 4 3 2 2 3 3 3 2
9 11 13 14 15 15 15 14 13 14 16 19 23 27 27 24 22 24 26 27 27 27 27 27 27 27 26 25 22 16 12 11 10 9 9 10 10 10 10 11 12 11 11 12 13 14 14 12 11 12 14 16 15 14 12 11 9 8 7 7 6 6 7 7 7 7 8 8 8 9 10 10 9 9 8 8 7 6 5 5 4 3 2 2 1 1 1
7 9 11 13 14 15 16 15 15 15 17 19 23 27 29 26 23 23 25 28 28 28 28 29 28 28 27 26 22 17 14 14 13 12 11 11 10 9 10 11 12 12 13 13 14 14 14 12 11 12 14 15 15 14 13 12 10 9 8 7 7 6 6 6 6 6 7 7 7 7 8 8 8 9 9 8 7 6 5 5 4 3 3 2 1 1 1
Wind_Direction
202 179 226 254 111 121 163 175 227 233 157 165 188 199 195 154 143 229 234 168 193 248 251 240 244 213 191 231 245 247 271 282 282 300 297 297 358 336 339 1 339 293 262 252 250 250 251 249 246 242 240 238 237 238 240 241 241 241 240 240 239 241 243 245 246 246 245 245 247 247 245 242 240 241 243 245 246 247 246 246 247 245 239 239 243 249 254
87 193 228 198 136 122 190 207 233 231 194 200 209 203 186 169 174 203 167 171 221 244 234 230 193 107 121 115 116 148 187 258 292 300 294 286 258 275 331 351 346 337 302 275 258 251 252 253 253 250 247 245 243 243 243 243 242 242 241 240 239 240 242 245 245 246 246 246 247 248 247 246 243 241 241 243 244 245 245 244 244 243 240 241 244 247 252
349 322 103 119 116 142 205 269 293 212 189 214 219 178 175 185 208 156 125 158 258 260 223 169 109 111 118 108 109 131 155 257 287 294 292 290 283 282 298 313 316 317 309 294 278 267 262 259 258 255 252 249 247 246 246 244 243 241 241 241 242 242 243 245 245 245 246 247 248 248 247 248 247 244 242 242 244 244 243 242 241 241 241 242 244 247 252
271 307 66 68 53 73 42 312 296 173 159 191 210 191 182 182 171 146 123 240 265 266 232 132 109 109 109 100 99 108 103 263 286 296 290 290 299 304 299 289 295 304 300 290 283 279 278 276 271 266 259 252 247 245 245 245 244 242 241 241 243 244 244 244 245 245 246 247 249 249 248 248 248 247 244 243 243 243 240 237 238 240 241 242 245 249 254
229 292 53 82 63 52 346 285 230 188 183 192 192 204 203 183 150 145 187 228 243 266 277 113 96 90 100 98 88 75 26 318 294 286 283 292 305 308 298 287 286 289 286 281 276 275 279 283 282 275 267 259 252 248 245 245 246 246 243 242 242 244 244 244 244 244 245 247 249 249 248 248 250 250 246 241 239 236 233 231 235 241 243 244 246 250 255
209 286 11 95 96 101 249 248 203 190 208 195 174 189 217 196 166 175 204 227 261 274 145 132 106 84 101 97 80 66 22 328 306 291 285 292 299 298 294 290 289 289 282 273 269 270 272 275 278 276 268 262 258 254 249 245 244 246 246 243 241 242 243 244 244 244 244 246 248 250 248 246 249 249 242 236 233 229 227 230 236 241 242 242 243 246 251
163 337 40 106 213 235 244 281 277 211 200 176 153 136 227 211 218 237 216 241 243 192 126 116 96 90 92 73 38 29 24 325 300 311 289 273 278 285 288 289 292 294 289 278 271 270 269 267 268 271 268 263 258 255 251 246 242 242 244 243 241 241 241 244 244 243 242 243 246 249 247 245 247 244 234 230 229 227 228 233 237 238 239 240 242 245 249
141 89 92 160 238 258 283 322 314 179 142 130 117 57 301 234 203 185 185 208 199 139 106 95 84 77 62 33 8 289 185 220 254 277 281 275 279 288 296 299 299 302 302 298 289 279 272 267 264 265 266 264 260 255 251 247 244 242 242 241 240 239 239 241 243 243 242 242 243 245 244 242 243 239 230 228 230 230 231 234 237 239 240 242 245 247 248
146 135 169 231 283 299 308 305 255 172 145 162 150 138 265 243 195 173 175 187 175 131 108 105 87 58 21 21 38 171 194 221 255 271 285 293 296 302 308 306 303 305 304 301 295 283 274 268 264 263 262 261 259 256 252 248 245 244 243 241 240 238 237 238 239 240 240 240 240 242 242 241 242 240 233 232 232 232 233 234 237 240 242 245 248 249 247
114 104 116 278 255 251 251 244 241 232 175 178 145 120 273 259 205 189 178 161 165 148 126 131 107 64 19 337 320 198 200 220 246 268 282 292 294 298 304 305 305 306 300 291 288 282 274 268 263 261 260 259 258 257 254 251 249 246 245 244 242 240 238 237 237 238 239 240 242 242 239 238 240 240 237 236 236 234 234 236 238 239 242 246 248 245 242
121 119 140 182 194 229 240 235 248 271 179 176 115 70 308 263 198 189 184 164 169 163 154 158 133 96 88 267 253 213 204 220 250 279 287 287 288 292 305 315 317 312 301 289 285 285 278 269 263 260 260 259 258 257 256 255 254 251 249 247 244 242 239 237 236 237 238 239 241 241 239 236 237 239 238 240 240 238 236 238 239 238 240 245 245 237 234
171 145 153 211 217 238 245 235 224 141 140 135 97 62 277 237 184 184 183 173 176 174 166 161 139 136 198 235 243 225 215 225 256 279 281 286 301 311 319 325 320 309 303 294 288 289 286 279 273 268 264 262 259 259 260 259 257 255 253 250 246 243 241 238 236 235 235 236 236 236 235 233 234 238 241 243 244 243 241 239 237 235 236 240 241 237 237
166 153 168 251 250 240 244 225 165 141 123 100 122 206 235 196 176 182 182 175 180 182 178 178 176 195 214 227 248 244 236 247 267 280 290 308 327 334 331 326 319 308 303 300 297 297 297 293 289 285 279 275 271 270 267 264 261 259 257 254 249 243 240 239 237 235 235 235 234 233 233 231 229 233 239 242 242 239 235 233 231 230 231 235 239 241 241
148 153 157 205 274 237 192 140 133 141 133 171 211 205 191 175 174 180 183 180 183 189 195 202 208 212 216 223 234 239 245 269 288 307 321 328 334 336 333 331 326 316 310 311 312 312 309 308 307 301 295 293 294 295 287 279 277 270 260 254 250 244 240 239 238 236 236 237 237 235 233 231 228 226 227 228 227 222 219 220 224 227 229 232 236 237 236
137 62 85 118 271 218 160 131 117 160 176 201 183 158 156 173 176 178 184 187 188 196 206 213 215 221 227 222 219 217 229 258 291 318 324 323 326 333 338 337 331 328 327 330 330 328 327 329 325 316 309 307 309 312 309 301 300 289 261 250 246 241 238 238 238 237 238 238 237 235 231 228 224 218 212 209 209 211 212 212 216 223 227 229 230 232 233
137 101 165 187 255 197 168 153 145 193 190 174 155 150 155 175 182 185 190 193 195 201 212 216 214 218 223 217 215 218 236 268 296 308 310 318 329 337 342 341 339 340 343 344 342 338 337 339 337 329 322 316 312 312 313 312 314 309 262 238 236 233 233 237 237 236 237 236 232 229 225 221 216 211 205 202 203 207 209 209 212 218 221 220 218 218 219
168 174 212 234 298 191 182 178 148 175 183 172 155 158 160 172 186 196 199 200 202 205 212 216 210 214 218 216 217 223 244 282 301 299 306 321 335 341 346 349 347 346 349 348 343 339 340 343 344 338 328 319 310 306 308 312 318 323 282 232 227 224 230 238 236 233 233 228 219 216 216 214 212 208 205 202 199 196 196 199 204 206 203 195 183 178 173
229 237 251 266 335 179 186 191 179 169 177 171 163 166 164 168 184 196 200 205 207 205 210 214 212 215 217 214 218 224 238 278 291 292 310 325 336 343 349 351 347 349 352 345 334 337 344 345 344 340 326 316 311 308 308 306 303 303 285 248 233 227 231 238 234 229 226 216 201 198 204 209 208 203 198 195 189 181 177 180 182 180 172 161 154 153 148
187 235 302 314 332 179 184 192 194 176 171 171 173 178 181 179 180 182 185 194 199 201 210 219 221 223 218 214 221 222 218 245 270 290 314 325 334 345 349 350 351 352 347 336 330 339 346 344 342 339 323 312 314 314 315 308 289 278 260 234 222 217 216 217 215 217 220 214 201 192 190 189 187 182 178 175 169 161 158 158 157 153 149 147 147 148 143
169 232 286 313 321 217 193 193 193 181 174 178 184 182 181 180 176 179 184 188 193 201 210 220 225 228 222 219 224 216 201 219 255 292 315 323 334 351 358 359 359 353 343 335 336 346 348 346 347 347 336 328 330 328 330 324 290 266 236 207 197 194 192 190 185 182 181 183 182 175 164 158 156 154 152 150 146 142 141 143 143 141 139 138 139 138 134
310 272 277 294 12 293 228 202 193 186 182 185 185 178 176 180 183 189 193 195 198 200 203 212 224 229 225 221 217 202 193 210 254 297 320 329 338 359 12 9 1 357 352 346 352 5 3 3 9 10 10 24 33 23 20 15 300 221 182 164 161 166 167 159 149 139 134 138 145 144 139 136 134 132 132 133 131 128 126 129 131 132 131 129 128 129 128
279 259 212 181 152 256 225 207 196 190 188 187 186 182 180 184 192 199 201 201 202 202 205 218 231 233 231 220 201 186 182 196 256 315 332 340 355 41 39 20 8 19 24 24 40 47 39 41 44 38 36 50 59 55 54 60 77 123 139 138 138 143 144 137 132 130 127 126 128 128 127 127 125 123 122 122 122 120 120 121 123 124 125 124 121 123 124
245 266 222 196 189 216 215 204 195 190 190 191 190 191 194 198 199 203 208 208 209 210 216 230 240 239 234 215 193 178 173 190 241 322 357 26 107 107 93 68 58 64 65 70 82 82 77 73 70 64 59 64 69 72 78 86 93 109 125 129 128 129 129 128 127 127 125 124 124 123 123 123 122 122 121 120 118 116 118 121 123 124 125 123 120 121 123
261 304 280 220 208 228 225 204 193 190 194 196 196 199 209 215 211 214 220 220 221 224 226 233 237 228 216 206 192 176 171 196 233 231 125 142 140 133 124 106 91 91 95 99 100 99 96 90 86 83 80 79 80 83 88 94 100 109 118 122 122 122 124 126 127 127 126 126 126 125 125 124 124 125 124 122 120 119 121 124 125 124 122 120 119 122 123
271 297 300 249 219 227 231 204 195 195 198 202 205 210 219 224 223 225 229 228 233 237 231 229 227 210 194 195 190 181 182 195 195 166 151 154 152 146 135 124 119 118 117 115 115 115 111 107 103 99 95 93 93 93 94 98 102 107 112 114 116 119 123 126 127 126 126 128 129 130 131 131 131 132 131 130 129 128 126 125 122 121 120 120 122 125 123
297 288 284 253 225 224 223 203 200 204 205 207 212 218 222 227 230 232 234 234 235 228 214 215 213 190 180 185 183 183 191 193 176 164 165 165 160 153 142 132 126 123 119 116 122 129 123 117 115 111 107 106 104 101 100 102 105 106 107 109 111 114 118 121 123 124 126 128 131 132 132 132 131 131 130 130 131 130 128 127 125 122 121 120 121 119 114
315 290 254 226 214 220 219 209 208 211 210 211 218 222 226 232 234 234 235 229 212 193 184 195 200 178 171 177 180 183 191 190 176 169 172 172 163 149 141 135 129 126 118 102 109 133 138 130 123 113 106 106 105 102 101 104 107 108 109 108 109 111 113 116 118 121 124 126 127 128 128 127 127 127 128 129 130 130 130 130 127 124 121 118 115 111 104
312 289 236 217 221 227 224 217 214 213 211 213 220 225 230 233 230 231 234 225 200 183 177 182 194 184 174 175 181 186 189 187 180 176 174 171 161 149 144 140 134 129 117 100 100 116 125 122 115 108 104 104 105 105 105 106 108 109 109 110 112 114 116 119 121 123 124 125 126 128 129 130 130 132 133 132 131 131 130 129 126 123 121 118 114 110 103
304 286 233 223 233 238 229 217 211 210 209 213 218 223 228 230 227 225 223 209 190 184 180 176 182 186 179 176 181 189 190 187 184 180 175 169 163 158 156 149 141 133 123 112 109 111 114 114 111 109 109 109 111 113 115 116 115 112 111 113 115 117 120 122 123 124 124 125 128 130 132 134 135 135 133 132 131 130 128 126 123 121 119 116 114 112 107
304 289 238 227 238 248 233 218 211 209 209 211 216 217 218 220 222 219 211 197 184 185 183 175 173 178 179 179 184 191 193 191 187 183 180 176 174 173 169 159 149 140 132 125 120 115 114 115 114 114 114 114 115 116 116 117 117 115 115 118 120 121 123 124 125 127 128 130 132 133 134 136 136 135 133 131 130 128 126 124 123 121 119 118 117 114 104
297 284 247 233 238 245 228 214 210 209 209 211 216 215 211 210 213 211 206 196 184 183 185 179 172 173 180 186 189 192 193 192 189 187 187 190 191 187 181 171 160 148 138 135 131 123 120 120 119 119 118 119 122 122 117 114 115 115 117 122 124 125 125 125 126 129 131 133 134 135 137 137 137 134 132 131 130 129 128 128 127 125 123 121 115 103 93
278 268 243 232 235 235 220 211 209 212 215 216 216 213 210 211 217 216 210 201 187 184 187 184 176 175 183 191 194 194 192 191 191 191 191 193 194 190 184 175 163 149 139 139 137 130 126 124 119 117 117 119 125 124 116 110 111 113 116 122 128 131 132 132 131 132 134 136 139 140 140 141 141 139 137 136 137 137 136 134 133 130 126 120 110 100 94
253 240 230 227 226 218 213 214 217 221 225 223 217 211 208 209 210 207 202 194 185 184 187 187 182 183 189 194 197 196 193 190 190 191 189 186 183 183 178 169 158 148 143 145 144 140 138 132 124 123 124 122 122 120 111 103 101 102 106 113 121 130 135 135 136 138 141 145 150 152 150 149 149 148 146 144 144 144 143 141 138 134 127 118 112 107 103
257 254 254 252 244 235 230 230 232 232 229 221 212 208 205 202 199 194 190 187 183 183 185 188 190 191 194 197 199 198 196 192 189 185 183 183 182 179 173 164 158 152 149 149 150 153 152 143 135 136 136 128 124 124 116 104 100 104 110 115 120 126 131 132 134 137 140 146 155 161 163 163 161 159 156 153 151 150 148 143 137 131 122 117 116 113 104
264 268 269 267 262 256 252 251 251 248 238 224 215 211 207 201 195 188 183 184 182 179 181 189 194 194 195 197 200 200 197 194 188 183 182 184 183 177 170 164 158 152 148 149 153 159 158 152 148 148 147 141 134 130 121 109 105 110 121 130 131 130 132 134 137 139 141 144 150 158 164 169 170 168 165 160 157 155 149 139 130 123 114 112 112 105 90
257 263 263 259 255 254 253 253 256 256 247 234 224 216 209 202 194 184 178 179 176 175 180 189 193 193 195 199 204 203 196 189 186 184 184 184 181 175 170 164 157 154 154 156 159 163 162 159 157 157 156 152 141 129 119 113 109 112 121 133 138 138 139 141 144 147 149 152 157 163 167 171 173 170 166 163 158 153 148 139 133 126 119 111 102 84 70
245 250 251 249 246 247 249 252 254 253 246 233 224 221 215 205 192 179 174 174 173 174 182 187 190 193 196 199 205 204 193 185 185 187 186 184 181 176 172 169 164 162 162 160 159 162 162 158 155 156 155 148 136 125 120 118 118 122 129 139 143 141 139 142 151 160 162 163 167 171 172 171 168 164 162 162 159 154 150 146 141 136 126 112 96 78 65
236 240 242 239 237 240 245 249 250 247 238 224 219 219 216 205 190 177 171 171 173 177 182 187 190 195 195 195 199 199 191 187 190 190 185 186 187 183 180 179 174 166 163 163 162 163 165 163 161 162 159 147 137 135 134 133 130 134 142 151 149 137 129 134 147 157 162 164 167 169 168 166 165 162 161 160 158 153 150 148 143 136 126 110 95 82 72
229 233 234 231 230 235 241 244 245 240 228 218 216 214 207 200 188 175 169 171 175 179 185 188 190 194 194 194 196 198 196 196 196 191 186 187 189 184 180 178 169 159 162 173 174 172 173 172 167 163 156 148 145 148 151 151 143 136 139 144 137 126 125 134 141 145 148 150 154 158 160 162 164 163 160 158 155 152 150 144 137 129 120 107 94 82 76
227 228 231 231 230 232 235 240 242 233 220 214 217 216 207 196 185 175 172 174 177 181 187 189 188 193 196 196 197 199 198 195 192 187 184 186 184 173 164 161 158 159 170 184 189 188 189 185 173 162 157 156 157 158 158 159 154 138 130 126 117 117 126 135 140 142 142 143 147 152 157 161 163 162 159 157 153 148 142 135 127 119 108 95 81 71 69
239 235 235 235 234 233 233 236 238 228 214 210 214 216 209 198 187 179 175 175 177 182 187 189 188 191 195 197 200 199 193 184 178 179 183 185 179 168 161 162 164 170 179 187 192 195 197 195 189 179 173 173 173 169 165 166 166 145 122 111 107 114 128 138 142 143 144 146 150 154 158 164 167 164 160 154 146 137 130 125 118 107 87 65 54 52 54
261 248 241 238 238 237 236 237 237 228 214 209 210 211 206 198 189 182 176 176 180 182 182 183 184 181 180 186 191 188 177 169 167 171 177 178 174 168 167 170 176 182 186 188 189 192 195 197 195 191 186 186 185 180 175 177 175 151 121 108 105 112 129 141 147 150 151 154 157 158 162 169 172 165 157 151 144 134 130 126 118 101 72 53 50 53 56
309 270 251 242 237 235 233 235 234 225 212 205 205 205 201 194 187 182 178 179 182 181 177 178 180 177 173 178 182 176 169 164 163 165 168 169 165 164 171 185 195 199 195 188 185 190 196 198 195 190 185 184 183 182 183 186 181 159 128 108 104 114 135 152 159 162 164 166 166 162 158 160 161 158 156 156 154 146 138 132 115 94 80 67 59 57 63
358 310 273 254 242 233 228 225 219 209 203 202 201 200 197 193 188 185 184 183 182 178 175 177 179 178 177 180 180 175 170 167 165 165 168 169 168 170 182 193 197 199 193 184 185 193 197 195 192 185 175 170 170 173 178 183 183 174 152 126 114 118 138 155 161 165 168 169 167 163 160 161 164 167 168 167 164 157 151 142 116 93 82 71 63 64 74
358 338 294 261 244 233 228 230 230 223 217 214 208 201 197 196 193 191 190 189 184 179 176 177 179 179 180 182 180 175 171 170 168 167 167 169 176 191 203 198 187 181 179 179 186 194 194 190 187 179 169 164 165 166 169 176 184 185 173 160 141 129 137 150 157 160 165 170 172 171 171 174 176 177 177 178 179 168 151 135 114 97 83 72 70 77 87
330 302 250 234 230 224 226 236 240 235 227 217 205 198 199 201 198 193 192 192 189 183 179 178 180 180 178 177 176 173 170 172 173 171 167 168 186 206 217 211 194 180 174 175 183 190 191 188 187 182 174 171 171 169 169 177 189 189 177 172 168 157 157 165 169 170 174 182 186 186 185 186 186 185 186 191 191 172 148 131 120 104 86 75 77 86 91
295 268 242 225 227 234 238 233 226 223 219 211 201 197 198 200 197 192 189 190 191 187 180 179 182 180 176 174 174 170 166 170 174 173 174 184 195 203 213 215 205 192 182 178 182 188 191 191 191 188 183 181 182 183 182 184 187 183 178 179 181 179 178 181 182 183 187 192 194 193 192 192 192 193 197 199 195 181 158 136 127 109 87 79 87 94 94
257 246 238 227 227 239 245 234 224 221 221 215 206 201 198 195 193 191 188 187 188 187 183 181 181 178 174 175 175 171 167 174 183 183 187 197 206 206 206 207 205 200 194 187 184 186 188 188 189 191 191 189 187 186 184 181 178 176 176 180 184 188 193 194 193 194 199 203 204 204 203 200 200 202 206 207 202 193 175 150 130 109 89 91 102 103 98
247 233 226 221 220 225 230 228 225 225 225 218 209 203 198 193 190 191 190 188 187 187 186 183 181 178 175 177 180 182 183 189 191 190 196 205 209 207 203 199 196 197 202 201 197 194 191 188 187 189 192 191 187 183 181 181 179 180 182 185 191 200 208 209 209 211 213 212 210 209 207 206 206 207 208 207 204 198 183 163 143 121 106 109 109 102 97
240 226 218 215 214 215 216 219 221 223 223 217 209 204 200 195 193 193 193 189 187 188 188 186 185 184 183 184 186 191 195 188 176 175 192 203 206 207 204 195 188 189 197 202 201 201 201 198 193 190 191 192 190 188 189 191 193 195 199 201 204 208 212 213 213 214 211 207 204 203 204 206 208 208 207 207 204 196 183 174 167 159 146 130 110 92 83
239 231 224 220 216 214 212 213 215 218 221 218 212 206 203 201 199 198 196 193 191 190 191 190 191 192 193 193 194 196 193 184 179 181 185 189 194 199 196 188 182 184 191 196 198 200 202 203 199 194 193 193 192 193 197 202 205 208 211 213 213 214 213 210 207 203 196 190 188 192 198 205 209 209 208 205 200 192 190 192 191 186 177 160 107 70 73
246 236 225 220 217 214 211 212 215 218 220 219 214 209 207 206 205 203 201 199 196 194 193 193 194 196 197 198 199 199 191 183 184 185 181 176 177 181 181 177 177 181 186 191 193 194 196 198 198 197 196 195 194 196 201 205 207 211 215 216 213 211 208 203 195 189 183 179 179 186 197 206 210 208 203 199 197 198 207 213 212 210 218 227 236 244 225
Height
1500 1504 1504 1503 1501 1503 1505 1504 1504 1505 1508 1511 1509 1509 1512 1512 1515 1516 1512 1514 1515 1507 1502 1503 1503 1504 1505 1505 1505 1506 1506 1507 1506 1506 1506 1505 1505 1504 1504 1504 1504 1504 1504 1504 1504 1505 1505 1506 1507 1508 1508 1509 1511 1512 1513 1515 1516 1518 1520 1522 1523 1525 1527 1529 1531 1533 1535 1537 1538 1539 1541 1542 1544 1546 1547 1548 1550 1551 1552 1553 1554 1554 1556 1557 1557 1558 1559
1500 1503 1504 1503 1501 1504 1505 1504 1504 1505 1507 1508 1506 1508 1512 1510 1509 1511 1513 1514 1510 1503 1502 1503 1503 1504 1504 1504 1505 1506 1506 1507 1506 1506 1506 1505 1505 1505 1504 1504 1504 1503 1503 1503 1503 1503 1503 1504 1505 1505 1506 1507 1508 1509 1510 1512 1514 1515 1517 1518 1520 1522 1523 1525 1527 1530 1532 1534 1536 1537 1538 1540 1541 1543 1545 1546 1547 1548 1549 1551 1552 1552 1554 1555 1555 1556 1557
1502 1501 1501 1503 1504 1504 1504 1503 1504 1506 1507 1510 1509 1509 1512 1512 1512 1514 1514 1513 1507 1501 1501 1503 1503 1504 1503 1504 1505 1505 1506 1507 1506 1506 1506 1505 1505 1505 1504 1504 1503 1503 1503 1502 1502 1501 1501 1502 1502 1502 1503 1504 1505 1506 1507 1509 1510 1512 1514 1515 1517 1518 1520 1522 1524 1526 1529 1530 1533 1535 1536 1538 1539 1541 1543 1544 1545 1546 1547 1549 1549 1550 1552 1553 1553 1554 1555
1507 1501 1501 1505 1504 1505 1506 1504 1503 1503 1504 1507 1507 1506 1507 1507 1509 1512 1513 1511 1505 1500 1500 1502 1503 1503 1503 1504 1505 1505 1506 1506 1506 1506 1506 1505 1505 1505 1504 1503 1503 1502 1502 1501 1501 1500 1500 1500 1500 1500 1500 1501 1502 1503 1504 1505 1507 1509 1511 1512 1513 1515 1517 1519 1521 1523 1525 1527 1529 1532 1534 1536 1537 1539 1541 1542 1543 1544 1545 1546 1547 1548 1549 1550 1551 1553 1554
1507 1506 1507 1505 1505 1512 1514 1505 1500 1500 1500 1502 1504 1503 1502 1502 1503 1507 1509 1506 1502 1500 1501 1502 1502 1503 1503 1504 1504 1505 1506 1506 1506 1506 1505 1505 1505 1504 1503 1502 1501 1501 1500 1499 1499 1499 1498 1498 1498 1498 1498 1498 1498 1499 1501 1502 1504 1505 1507 1508 1510 1511 1513 1516 1518 1520 1522 1524 1526 1529 1531 1533 1535 1537 1538 1540 1541 1542 1543 1544 1546 1546 1548 1549 1550 1551 1552
1505 1509 1507 1505 1513 1520 1513 1501 1497 1498 1498 1499 1501 1501 1500 1500 1501 1502 1503 1502 1501 1501 1501 1500 1501 1502 1503 1504 1504 1505 1505 1505 1505 1505 1505 1505 1504 1503 1502 1501 1500 1499 1499 1498 1498 1497 1497 1497 1496 1496 1496 1496 1496 1496 1497 1499 1500 1501 1503 1504 1506 1508 1510 1512 1514 1516 1519 1521 1523 1526 1529 1531 1533 1534 1536 1537 1538 1540 1541 1543 1544 1545 1546 1547 1548 1548 1549
1505 1509 1507 1514 1523 1515 1501 1497 1498 1497 1497 1497 1499 1499 1500 1500 1501 1500 1501 1501 1501 1500 1500 1500 1501 1502 1502 1503 1504 1504 1505 1505 1504 1505 1505 1504 1504 1503 1501 1500 1499 1498 1497 1496 1496 1496 1495 1495 1494 1494 1494 1493 1493 1494 1494 1495 1496 1497 1499 1500 1502 1504 1506 1508 1510 1512 1515 1517 1520 1523 1526 1528 1530 1532 1533 1535 1536 1538 1539 1541 1542 1542 1543 1544 1545 1546 1547
1507 1508 1511 1519 1518 1504 1497 1499 1498 1495 1497 1498 1499 1501 1500 1499 1499 1499 1499 1500 1500 1500 1500 1500 1501 1502 1502 1503 1503 1503 1504 1504 1504 1504 1504 1503 1503 1502 1500 1499 1497 1496 1495 1495 1494 1494 1494 1493 1493 1493 1492 1492 1491 1491 1491 1492 1493 1494 1495 1496 1498 1500 1502 1504 1506 1509 1511 1514 1516 1518 1520 1523 1526 1529 1531 1533 1534 1535 1537 1538 1539 1540 1541 1541 1543 1545 1545
1508 1509 1511 1512 1509 1505 1501 1498 1495 1494 1495 1495 1496 1499 1499 1496 1497 1498 1497 1498 1499 1499 1500 1500 1501 1502 1502 1502 1503 1503 1503 1503 1503 1503 1503 1503 1502 1501 1500 1498 1497 1495 1495 1494 1493 1492 1491 1491 1491 1491 1490 1490 1489 1488 1488 1489 1490 1491 1491 1492 1494 1496 1498 1500 1502 1505 1507 1509 1511 1513 1516 1520 1524 1526 1528 1530 1531 1533 1534 1535 1536 1537 1538 1540 1541 1542 1543
1509 1509 1512 1513 1514 1511 1500 1492 1491 1490 1491 1491 1491 1496 1498 1494 1493 1495 1495 1496 1498 1498 1499 1500 1500 1501 1503 1503 1503 1502 1502 1503 1503 1503 1503 1502 1501 1500 1499 1497 1495 1494 1494 1492 1491 1490 1489 1489 1489 1488 1488 1487 1486 1486 1485 1486 1486 1487 1487 1489 1491 1492 1494 1497 1499 1501 1503 1505 1507 1510 1514 1517 1521 1523 1524 1526 1528 1529 1530 1531 1532 1534 1536 1538 1538 1539 1540
1506 1504 1507 1512 1513 1504 1492 1487 1488 1488 1490 1489 1490 1499 1502 1493 1490 1493 1493 1494 1496 1497 1498 1499 1499 1502 1505 1504 1502 1501 1502 1502 1502 1502 1501 1500 1500 1499 1497 1496 1494 1493 1492 1490 1489 1488 1487 1487 1487 1486 1485 1485 1484 1483 1483 1483 1483 1482 1483 1485 1487 1489 1491 1493 1495 1497 1499 1501 1504 1507 1510 1514 1517 1520 1521 1522 1523 1524 1525 1527 1529 1531 1534 1535 1535 1537 1540
1501 1500 1503 1507 1503 1493 1487 1487 1487 1489 1489 1487 1497 1512 1508 1490 1487 1492 1491 1492 1495 1495 1496 1498 1499 1501 1503 1501 1500 1500 1500 1501 1501 1501 1500 1499 1499 1497 1496 1495 1493 1491 1490 1489 1488 1487 1485 1485 1484 1484 1483 1482 1481 1481 1480 1480 1479 1478 1479 1481 1483 1485 1487 1489 1491 1492 1494 1497 1499 1501 1505 1509 1512 1515 1518 1519 1520 1521 1523 1525 1527 1530 1532 1532 1533 1536 1538
1499 1501 1502 1503 1498 1488 1485 1486 1486 1487 1489 1493 1505 1511 1497 1484 1487 1490 1489 1492 1494 1494 1495 1497 1497 1498 1499 1498 1499 1499 1499 1499 1500 1499 1499 1498 1497 1496 1495 1493 1492 1490 1489 1488 1486 1485 1484 1483 1482 1482 1481 1480 1479 1478 1478 1476 1475 1475 1476 1477 1478 1481 1482 1484 1486 1488 1490 1492 1494 1497 1501 1504 1507 1510 1513 1515 1517 1519 1521 1523 1526 1528 1529 1530 1531 1532 1534
1501 1500 1500 1504 1499 1485 1481 1485 1486 1486 1492 1499 1499 1492 1483 1483 1487 1488 1489 1492 1493 1493 1495 1495 1495 1497 1497 1497 1498 1498 1498 1498 1498 1498 1498 1497 1496 1495 1494 1492 1491 1490 1488 1487 1485 1484 1483 1482 1481 1480 1479 1477 1476 1475 1474 1472 1472 1471 1471 1472 1474 1476 1479 1480 1483 1484 1486 1487 1490 1493 1496 1499 1502 1504 1505 1509 1513 1516 1519 1521 1524 1525 1526 1527 1528 1529 1531
1501 1502 1503 1507 1499 1483 1477 1483 1486 1487 1490 1490 1485 1481 1482 1485 1486 1487 1490 1491 1491 1493 1494 1494 1495 1496 1496 1496 1497 1496 1497 1497 1497 1497 1497 1496 1495 1494 1493 1492 1491 1489 1488 1486 1485 1483 1482 1481 1480 1478 1477 1475 1474 1472 1471 1469 1468 1466 1465 1466 1469 1472 1475 1478 1479 1481 1483 1485 1488 1490 1493 1495 1497 1498 1499 1502 1507 1512 1515 1518 1520 1522 1524 1525 1526 1528 1530
1493 1498 1498 1494 1485 1476 1475 1478 1480 1482 1482 1481 1479 1481 1483 1484 1485 1488 1489 1489 1491 1492 1492 1493 1494 1494 1494 1495 1495 1495 1496 1496 1496 1496 1496 1495 1494 1493 1492 1491 1490 1489 1488 1486 1485 1483 1482 1481 1479 1477 1475 1474 1472 1470 1468 1467 1465 1463 1462 1464 1466 1469 1472 1475 1477 1479 1481 1483 1486 1488 1490 1491 1493 1495 1496 1499 1502 1507 1511 1513 1515 1518 1520 1522 1525 1526 1528
1483 1485 1483 1477 1474 1474 1475 1475 1475 1477 1479 1480 1481 1482 1482 1484 1486 1487 1488 1489 1490 1491 1491 1492 1493 1492 1493 1494 1494 1495 1495 1495 1495 1495 1494 1494 1494 1492 1491 1491 1489 1488 1487 1486 1485 1484 1482 1481 1479 1477 1475 1473 1471 1469 1467 1465 1463 1462 1462 1463 1465 1467 1470 1472 1474 1477 1479 1480 1482 1484 1487 1488 1490 1492 1494 1496 1499 1502 1506 1508 1510 1514 1518 1521 1523 1525 1526
1478 1477 1475 1474 1474 1473 1474 1475 1476 1477 1478 1480 1481 1482 1483 1484 1485 1486 1488 1489 1489 1489 1490 1491 1491 1492 1492 1492 1493 1494 1494 1494 1495 1494 1494 1493 1493 1492 1491 1490 1489 1488 1487 1486 1485 1484 1483 1481 1479 1476 1475 1473 1471 1469 1466 1465 1464 1463 1463 1464 1465 1467 1468 1470 1472 1474 1476 1478 1480 1483 1485 1487 1488 1490 1492 1494 1497 1499 1502 1505 1508 1512 1516 1519 1522 1524 1526
1479 1478 1475 1474 1474 1473 1474 1475 1476 1477 1478 1480 1481 1482 1483 1484 1485 1487 1488 1488 1489 1489 1489 1489 1490 1491 1491 1491 1492 1493 1493 1494 1494 1493 1493 1493 1492 1492 1491 1490 1489 1488 1487 1486 1485 1484 1483 1481 1478 1477 1476 1473 1471 1469 1467 1466 1465 1464 1464 1465 1465 1466 1468 1470 1472 1472 1473 1474 1477 1480 1483 1482 1484 1488 1492 1494 1497 1499 1501 1504 1508 1512 1516 1519 1522 1524 1526
1479 1478 1476 1474 1474 1474 1474 1475 1476 1477 1478 1479 1480 1482 1483 1484 1485 1487 1487 1488 1489 1488 1488 1489 1490 1490 1490 1491 1492 1492 1493 1493 1493 1493 1493 1492 1492 1492 1491 1490 1489 1488 1487 1487 1485 1484 1483 1481 1479 1478 1477 1475 1473 1471 1469 1468 1466 1465 1465 1465 1466 1467 1468 1469 1470 1471 1471 1470 1471 1475 1479 1480 1483 1488 1492 1495 1499 1501 1503 1506 1509 1514 1517 1520 1522 1525 1526
1479 1478 1476 1475 1475 1475 1474 1474 1475 1476 1477 1479 1480 1481 1482 1483 1485 1486 1487 1487 1488 1488 1488 1489 1488 1489 1489 1490 1491 1492 1492 1492 1493 1493 1492 1492 1492 1492 1491 1490 1490 1488 1488 1487 1486 1485 1484 1482 1481 1480 1479 1477 1475 1473 1472 1470 1469 1467 1467 1467 1467 1468 1469 1471 1471 1472 1472 1472 1471 1474 1479 1483 1487 1491 1495 1499 1502 1504 1506 1509 1513 1517 1519 1521 1524 1526 1528
1480 1476 1474 1474 1475 1474 1473 1473 1474 1476 1477 1478 1479 1480 1482 1483 1484 1485 1486 1486 1487 1487 1488 1488 1488 1488 1488 1489 1490 1491 1492 1492 1493 1492 1492 1492 1492 1492 1492 1491 1490 1489 1489 1488 1487 1486 1485 1484 1484 1483 1481 1480 1479 1477 1475 1474 1472 1471 1471 1471 1471 1472 1473 1475 1476 1477 1478 1479 1479 1480 1483 1487 1490 1493 1498 1503 1506 1507 1508 1512 1516 1519 1521 1523 1526 1529 1531
1476 1473 1471 1472 1472 1471 1470 1471 1473 1475 1476 1477 1479 1480 1481 1482 1483 1484 1485 1485 1486 1486 1487 1487 1487 1487 1488 1489 1490 1490 1491 1492 1492 1492 1492 1492 1492 1492 1492 1492 1491 1491 1490 1489 1489 1488 1487 1486 1486 1486 1485 1484 1483 1481 1479 1478 1477 1476 1476 1475 1476 1477 1478 1480 1482 1482 1483 1485 1487 1487 1490 1492 1493 1495 1499 1503 1508 1511 1512 1515 1518 1521 1524 1527 1529 1532 1533
1473 1471 1471 1471 1471 1470 1471 1471 1473 1475 1476 1477 1478 1479 1480 1481 1482 1483 1483 1484 1485 1485 1486 1486 1487 1487 1488 1488 1489 1490 1491 1492 1492 1492 1492 1492 1493 1493 1493 1493 1493 1492 1491 1491 1490 1490 1489 1489 1489 1489 1489 1488 1487 1486 1485 1483 1482 1482 1481 1481 1481 1482 1484 1486 1487 1488 1488 1490 1492 1494 1496 1497 1499 1500 1502 1504 1508 1513 1517 1519 1522 1525 1527 1530 1532 1534 1536
1472 1471 1470 1470 1471 1471 1471 1472 1473 1474 1476 1477 1477 1478 1479 1480 1481 1482 1482 1483 1484 1484 1485 1485 1486 1486 1487 1488 1489 1490 1491 1491 1492 1492 1492 1493 1493 1494 1494 1494 1494 1494 1493 1492 1492 1492 1491 1491 1491 1492 1492 1492 1491 1491 1490 1489 1488 1488 1487 1487 1487 1488 1489 1490 1491 1493 1493 1495 1497 1499 1499 1501 1503 1504 1505 1506 1509 1515 1520 1523 1526 1528 1530 1532 1535 1536 1537
1470 1470 1470 1470 1471 1471 1472 1472 1473 1474 1475 1476 1477 1478 1479 1479 1480 1481 1481 1482 1483 1484 1484 1485 1485 1486 1487 1488 1489 1490 1491 1492 1492 1492 1493 1494 1494 1494 1495 1495 1496 1495 1495 1494 1494 1494 1494 1493 1493 1494 1494 1495 1495 1495 1494 1494 1494 1493 1493 1493 1493 1494 1494 1495 1496 1498 1499 1500 1502 1503 1505 1506 1507 1508 1509 1511 1514 1517 1521 1525 1528 1530 1532 1534 1536 1537 1538
1469 1469 1469 1470 1470 1470 1471 1471 1472 1473 1474 1475 1476 1477 1478 1478 1479 1480 1480 1481 1482 1483 1484 1484 1485 1486 1486 1487 1489 1490 1491 1492 1492 1492 1493 1494 1495 1495 1496 1496 1497 1497 1497 1496 1496 1496 1496 1496 1495 1495 1496 1497 1498 1498 1498 1499 1498 1497 1497 1498 1498 1499 1499 1500 1501 1503 1504 1506 1507 1508 1510 1511 1511 1512 1515 1517 1520 1523 1525 1527 1529 1531 1533 1535 1537 1538 1539
1468 1468 1468 1468 1468 1468 1469 1470 1471 1472 1473 1474 1475 1476 1477 1477 1478 1479 1480 1480 1481 1482 1483 1484 1485 1485 1486 1487 1488 1490 1490 1491 1492 1493 1494 1495 1496 1497 1497 1497 1498 1498 1498 1498 1498 1498 1498 1498 1498 1497 1499 1500 1500 1500 1501 1502 1502 1502 1502 1502 1503 1503 1504 1505 1506 1507 1508 1510 1511 1512 1514 1515 1516 1517 1519 1522 1525 1527 1529 1530 1531 1532 1534 1535 1537 1538 1539
1467 1467 1467 1467 1466 1466 1467 1468 1470 1470 1472 1473 1474 1475 1476 1476 1477 1478 1479 1480 1480 1481 1482 1483 1484 1485 1486 1487 1488 1489 1490 1491 1492 1493 1494 1495 1496 1497 1498 1498 1499 1500 1500 1500 1500 1500 1500 1500 1500 1500 1502 1503 1503 1504 1504 1505 1506 1506 1506 1506 1508 1508 1509 1510 1511 1511 1512 1514 1515 1517 1518 1519 1520 1522 1524 1526 1528 1530 1531 1533 1534 1535 1536 1537 1538 1539 1540
1465 1465 1465 1465 1466 1466 1466 1467 1468 1469 1471 1472 1473 1474 1475 1476 1476 1477 1478 1479 1479 1480 1481 1482 1483 1485 1486 1487 1488 1489 1490 1491 1492 1493 1495 1496 1497 1498 1498 1499 1500 1501 1501 1502 1502 1503 1503 1503 1503 1504 1505 1505 1506 1506 1507 1508 1509 1509 1510 1511 1512 1512 1513 1514 1515 1516 1517 1518 1520 1521 1522 1523 1524 1525 1527 1529 1531 1532 1533 1535 1536 1537 1538 1539 1540 1540 1541
1464 1463 1463 1464 1464 1464 1465 1465 1467 1468 1470 1471 1472 1473 1474 1475 1475 1476 1477 1478 1478 1479 1480 1482 1483 1484 1486 1487 1488 1489 1490 1491 1492 1494 1495 1496 1497 1498 1499 1500 1500 1501 1502 1503 1504 1505 1505 1506 1506 1506 1507 1508 1508 1508 1509 1510 1511 1512 1514 1515 1516 1517 1518 1518 1519 1520 1521 1522 1523 1524 1525 1526 1527 1528 1530 1531 1533 1534 1535 1536 1537 1539 1540 1540 1541 1542 1542
1462 1461 1462 1462 1463 1464 1464 1465 1466 1467 1469 1470 1471 1472 1473 1474 1475 1475 1476 1477 1478 1479 1480 1481 1483 1484 1486 1487 1488 1489 1490 1491 1493 1494 1495 1496 1497 1498 1499 1500 1501 1502 1503 1505 1506 1507 1507 1508 1508 1508 1509 1510 1510 1510 1511 1511 1512 1515 1517 1518 1519 1520 1521 1521 1522 1523 1524 1525 1526 1526 1527 1528 1529 1530 1532 1533 1534 1535 1536 1538 1539 1540 1541 1542 1542 1543 1544
1460 1459 1460 1460 1462 1463 1463 1464 1465 1467 1468 1469 1470 1471 1472 1473 1474 1475 1476 1476 1477 1479 1480 1481 1483 1484 1485 1487 1488 1489 1491 1492 1493 1494 1496 1497 1498 1499 1500 1502 1502 1503 1504 1506 1507 1508 1509 1509 1509 1510 1511 1511 1511 1512 1513 1513 1514 1517 1519 1520 1521 1522 1523 1524 1525 1526 1526 1527 1528 1528 1529 1530 1531 1532 1533 1534 1535 1536 1538 1539 1540 1541 1542 1542 1543 1544 1545
1458 1458 1458 1459 1460 1461 1462 1463 1464 1465 1466 1468 1469 1470 1472 1473 1473 1474 1475 1476 1477 1478 1480 1481 1483 1484 1485 1487 1488 1489 1490 1491 1492 1494 1495 1497 1498 1500 1501 1502 1503 1504 1506 1507 1508 1509 1510 1510 1511 1511 1512 1512 1513 1513 1514 1514 1516 1518 1520 1521 1522 1523 1524 1526 1527 1528 1528 1529 1529 1529 1530 1531 1532 1533 1534 1535 1536 1538 1539 1539 1541 1541 1542 1543 1544 1545 1545
1456 1456 1457 1458 1458 1460 1461 1462 1463 1464 1465 1467 1468 1469 1470 1472 1473 1473 1474 1475 1476 1478 1480 1481 1482 1484 1485 1487 1488 1489 1490 1491 1492 1494 1495 1497 1498 1500 1501 1503 1504 1505 1506 1508 1509 1510 1511 1512 1512 1513 1513 1514 1514 1514 1515 1515 1516 1519 1521 1522 1522 1523 1525 1526 1528 1529 1529 1530 1530 1531 1531 1532 1533 1534 1535 1536 1537 1539 1540 1541 1542 1542 1543 1544 1544 1545 1546
1453 1454 1455 1456 1457 1458 1460 1461 1462 1463 1464 1465 1467 1468 1469 1471 1471 1473 1474 1475 1476 1478 1480 1481 1482 1484 1485 1487 1487 1488 1489 1491 1493 1494 1496 1497 1499 1501 1502 1504 1505 1506 1507 1508 1509 1511 1512 1512 1513 1514 1515 1515 1515 1515 1516 1516 1517 1519 1521 1523 1524 1524 1526 1527 1528 1529 1530 1530 1531 1532 1532 1533 1534 1535 1536 1537 1539 1540 1541 1542 1542 1543 1544 1544 1545 1545 1546
1451 1452 1453 1454 1455 1456 1458 1460 1461 1462 1463 1465 1466 1468 1468 1470 1471 1472 1473 1475 1476 1478 1479 1481 1482 1484 1485 1486 1488 1489 1490 1492 1493 1495 1496 1498 1500 1502 1503 1505 1506 1507 1507 1508 1509 1510 1512 1512 1514 1515 1516 1516 1517 1516 1517 1517 1518 1520 1522 1524 1524 1525 1526 1527 1528 1529 1530 1531 1532 1533 1534 1534 1535 1536 1537 1539 1540 1541 1542 1543 1543 1544 1545 1545 1545 1546 1546
1448 1449 1451 1452 1453 1455 1457 1458 1459 1461 1462 1464 1466 1467 1468 1469 1470 1471 1473 1475 1476 1478 1479 1481 1483 1484 1485 1487 1488 1490 1492 1493 1494 1496 1497 1499 1500 1501 1503 1504 1505 1506 1508 1509 1510 1511 1512 1513 1514 1515 1517 1517 1518 1518 1519 1520 1520 1521 1523 1524 1524 1525 1526 1527 1528 1529 1531 1532 1533 1535 1536 1536 1537 1538 1539 1540 1541 1542 1543 1544 1544 1545 1545 1546 1546 1547 1547
1446 1447 1449 1450 1451 1453 1455 1456 1458 1460 1461 1463 1465 1466 1467 1469 1470 1471 1473 1474 1476 1478 1479 1481 1482 1484 1485 1487 1488 1490 1492 1493 1495 1496 1498 1500 1501 1502 1504 1505 1506 1508 1509 1510 1511 1512 1513 1513 1514 1516 1517 1518 1519 1519 1521 1522 1523 1523 1524 1524 1524 1524 1525 1527 1528 1530 1531 1533 1535 1536 1538 1539 1539 1540 1541 1541 1543 1544 1545 1545 1546 1546 1546 1547 1547 1547 1548
1444 1445 1447 1448 1450 1452 1453 1455 1457 1458 1460 1462 1464 1465 1466 1468 1469 1471 1472 1474 1476 1477 1479 1480 1482 1483 1485 1487 1488 1490 1492 1494 1495 1497 1499 1500 1502 1503 1505 1506 1507 1508 1509 1510 1512 1512 1513 1514 1515 1516 1517 1519 1520 1521 1522 1523 1524 1524 1524 1524 1524 1524 1525 1527 1528 1530 1532 1534 1536 1538 1539 1540 1541 1541 1542 1543 1544 1545 1545 1546 1546 1546 1547 1547 1547 1547 1547
1443 1444 1446 1447 1449 1451 1452 1454 1455 1457 1459 1461 1463 1464 1466 1467 1468 1470 1472 1473 1475 1476 1478 1480 1482 1483 1485 1486 1488 1490 1492 1494 1496 1498 1500 1501 1502 1503 1504 1505 1506 1508 1509 1510 1511 1512 1513 1514 1515 1516 1517 1519 1520 1521 1522 1523 1524 1524 1524 1524 1524 1524 1525 1527 1529 1531 1533 1535 1537 1539 1540 1541 1541 1542 1542 1543 1544 1545 1545 1546 1546 1546 1546 1546 1546 1545 1545
1442 1443 1445 1446 1448 1450 1451 1453 1454 1456 1458 1460 1462 1463 1465 1467 1468 1470 1471 1473 1474 1476 1478 1480 1482 1483 1485 1486 1488 1490 1492 1494 1496 1498 1499 1501 1502 1503 1504 1505 1506 1508 1509 1510 1511 1512 1513 1514 1515 1516 1517 1519 1520 1522 1523 1523 1524 1524 1524 1524 1525 1525 1526 1528 1530 1532 1533 1535 1537 1538 1539 1541 1541 1542 1543 1543 1544 1545 1545 1545 1545 1545 1545 1545 1545 1544 1544
1441 1442 1443 1445 1447 1448 1450 1452 1453 1454 1456 1459 1461 1463 1465 1467 1468 1470 1471 1472 1474 1475 1477 1479 1481 1483 1485 1486 1488 1490 1492 1494 1495 1498 1500 1501 1502 1503 1504 1505 1506 1507 1508 1509 1510 1511 1512 1513 1514 1516 1517 1518 1520 1521 1523 1524 1525 1525 1525 1525 1525 1526 1527 1529 1531 1532 1534 1535 1536 1538 1539 1540 1541 1542 1543 1543 1544 1544 1544 1544 1544 1544 1544 1544 1544 1545 1545
1440 1441 1442 1444 1446 1447 1449 1452 1454 1456 1457 1458 1460 1462 1464 1466 1468 1470 1471 1472 1473 1475 1476 1478 1480 1482 1484 1486 1488 1489 1491 1493 1495 1497 1499 1500 1501 1503 1504 1505 1506 1507 1508 1509 1510 1511 1511 1512 1514 1515 1517 1518 1519 1521 1522 1524 1525 1526 1526 1526 1527 1527 1528 1530 1531 1532 1534 1535 1536 1538 1539 1540 1541 1542 1542 1543 1543 1544 1544 1544 1544 1544 1544 1545 1545 1545 1546
1439 1440 1442 1444 1445 1447 1448 1450 1454 1457 1459 1459 1459 1461 1463 1465 1467 1469 1471 1472 1474 1475 1476 1478 1480 1482 1484 1486 1488 1490 1492 1493 1495 1497 1498 1499 1500 1502 1502 1504 1505 1507 1508 1509 1510 1510 1511 1512 1513 1515 1516 1518 1519 1521 1522 1524 1525 1526 1526 1527 1528 1528 1529 1530 1532 1533 1534 1535 1536 1537 1538 1540 1541 1542 1543 1543 1544 1544 1544 1544 1545 1545 1545 1545 1546 1546 1546
1440 1440 1442 1443 1445 1447 1448 1449 1451 1456 1459 1460 1459 1460 1462 1464 1465 1468 1470 1472 1474 1475 1476 1478 1480 1482 1484 1486 1488 1490 1492 1494 1496 1497 1498 1499 1500 1501 1502 1503 1504 1506 1507 1508 1509 1510 1511 1511 1513 1514 1516 1518 1519 1520 1522 1524 1525 1526 1527 1527 1528 1529 1530 1531 1532 1533 1534 1535 1536 1537 1539 1540 1541 1542 1543 1543 1544 1544 1544 1545 1545 1545 1545 1546 1546 1546 1547
1440 1440 1441 1442 1443 1445 1447 1448 1450 1454 1457 1458 1458 1459 1460 1462 1464 1467 1469 1471 1474 1476 1477 1479 1480 1482 1484 1486 1488 1490 1492 1493 1495 1496 1498 1499 1499 1500 1501 1502 1504 1505 1506 1507 1508 1509 1510 1511 1512 1514 1516 1517 1519 1520 1522 1523 1525 1526 1527 1527 1528 1529 1530 1531 1532 1533 1534 1535 1536 1538 1539 1540 1541 1542 1543 1543 1544 1544 1544 1544 1545 1545 1546 1546 1546 1546 1547
1439 1440 1440 1441 1441 1443 1445 1447 1448 1451 1453 1454 1455 1457 1459 1461 1463 1466 1468 1470 1473 1475 1477 1478 1480 1482 1484 1487 1489 1491 1493 1494 1495 1496 1497 1498 1499 1499 1500 1502 1503 1504 1505 1506 1507 1509 1510 1511 1512 1514 1515 1517 1519 1520 1522 1523 1524 1525 1526 1527 1528 1529 1530 1531 1532 1533 1534 1535 1536 1537 1538 1539 1540 1541 1542 1543 1543 1543 1544 1544 1545 1545 1545 1546 1546 1546 1546
1437 1438 1439 1439 1440 1441 1443 1445 1446 1447 1449 1452 1454 1456 1458 1460 1462 1465 1467 1469 1471 1474 1475 1477 1479 1482 1484 1486 1489 1491 1493 1494 1495 1496 1496 1497 1498 1499 1500 1501 1502 1503 1504 1505 1506 1508 1509 1510 1512 1513 1515 1517 1518 1520 1521 1523 1524 1525 1526 1527 1528 1529 1530 1531 1532 1533 1534 1535 1536 1537 1538 1539 1540 1540 1541 1542 1542 1543 1543 1544 1544 1545 1545 1545 1546 1546 1546
1435 1436 1437 1437 1438 1440 1441 1443 1444 1445 1447 1450 1452 1455 1457 1458 1460 1462 1465 1467 1470 1472 1474 1476 1479 1481 1484 1486 1488 1490 1492 1493 1494 1495 1496 1497 1497 1498 1499 1500 1501 1502 1503 1505 1506 1507 1508 1510 1511 1513 1514 1516 1518 1519 1521 1522 1523 1524 1525 1527 1528 1529 1530 1530 1531 1532 1533 1534 1535 1536 1537 1538 1539 1539 1540 1541 1541 1542 1543 1543 1544 1544 1545 1545 1545 1545 1546
1433 1434 1435 1436 1437 1438 1440 1441 1443 1444 1446 1448 1450 1453 1455 1457 1459 1461 1463 1465 1468 1470 1472 1475 1477 1480 1482 1485 1487 1489 1491 1492 1493 1494 1495 1496 1497 1498 1499 1499 1500 1502 1503 1504 1505 1506 1508 1509 1510 1512 1514 1515 1517 1519 1520 1522 1523 1524 1525 1526 1527 1528 1529 1530 1531 1531 1532 1533 1534 1535 1536 1536 1537 1538 1539 1540 1540 1541 1542 1542 1543 1543 1544 1544 1544 1545 1545
1432 1432 1433 1434 1436 1437 1438 1440 1441 1443 1444 1446 1448 1450 1453 1455 1457 1459 1461 1464 1466 1468 1471 1473 1475 1478 1481 1484 1486 1488 1490 1491 1492 1494 1495 1495 1496 1497 1498 1499 1500 1501 1502 1503 1504 1506 1507 1508 1510 1511 1513 1515 1516 1518 1520 1521 1522 1523 1525 1526 1527 1527 1528 1529 1530 1530 1531 1532 1533 1533 1534 1535 1536 1537 1538 1539 1539 1540 1541 1541 1542 1542 1543 1543 1543 1544 1544